Home   Weather   Woodbridge   Past weeks
Flag for USA

Past Weather in Woodbridge, South Carolina, USA — Yesterday and Last 2 Weeks

Now
42 °F

Clear.


Feels Like: 37 °F
Forecast: 59 / 40 °F
Wind: 9 mph from Northeast

Location: Florence Regional Airport

Current Time: Mar 19, 2019 at 7:09:02 am

Latest Report: Mar 19, 2019 at 5:53 am


Visibility: 10 mi

Pressure: 30.32 "Hg

Humidity: 71%

Dew Point: 33 °F

Location of WoodbridgeLocation

Past Weather in Woodbridge — Graph

°F

Woodbridge Temperature Yesterday

Maximum temperature yesterday: 67 °F (at 3:53 pm)
Minimum temperature yesterday: 35 °F (at 4:53 am)
Average temperature yesterday: 52 °F

High & Low Weather Summary for the Past Weeks

 TemperatureHumidityPressure
High82 °F (Mar 10, 3:53 pm)97% (Mar 5, 5:35 am)30.40 "Hg (Mar 5, 5:35 am)
Low29 °F (Mar 6, 6:53 am)17% (Mar 12, 1:53 pm)29.78 "Hg (Mar 4, 4:53 am)
Average53 °F63%30.17 "Hg
* Reported Mar 4 4:53 am — Mar 19 5:53 am, Woodbridge. Weather by CustomWeather, © 2019

Note: Actual official high and low records may vary slightly from our data, if they occured in-between our weather recording intervals... More about our weather records

Advertising

Woodbridge Weather History for the Previous 24 Hours

Scroll right to see more
 ConditionsComfort  
Time TempWeatherWind HumidityBarometerVisibility
5:53 am
Tue, Mar 19
42 °FClear.9 mph71%30.32 "Hg10 mi
4:53 am43 °FClear.8 mph71%30.32 "Hg10 mi
3:53 am45 °FClear.7 mph65%30.32 "Hg10 mi
2:53 am46 °FClear.10 mph61%30.32 "Hg10 mi
1:53 am48 °FClear.12 mph37%30.31 "Hg10 mi
12:53 am49 °FClear.9 mph32%30.29 "Hg10 mi
11:53 pm
Mon, Mar 18
51 °FClear.12 mph28%30.27 "Hg10 mi
10:53 pm52 °FClear.10 mph28%30.27 "Hg10 mi
9:53 pm53 °FClear.9 mph28%30.25 "Hg10 mi
8:53 pm55 °FClear.12 mph27%30.22 "Hg10 mi
7:53 pm57 °FClear.12 mph26%30.20 "Hg10 mi
6:53 pm62 °FPartly sunny.13 mph25%30.15 "Hg10 mi
5:53 pm64 °FPartly sunny.8 mph23%30.12 "Hg10 mi
4:53 pm65 °FSunny.8 mph21%30.11 "Hg10 mi
3:53 pm67 °FPassing clouds.7 mph21%30.11 "Hg10 mi
2:53 pm66 °FSunny.12 mph24%30.13 "Hg10 mi
1:53 pm65 °FSunny.5 mph25%30.15 "Hg10 mi
12:53 pm63 °FSunny.3 mph27%30.18 "Hg10 mi
11:53 am62 °FSunny.7 mph29%30.19 "Hg10 mi
10:53 am59 °FSunny.7 mph33%30.20 "Hg10 mi
9:53 am54 °FSunny.7 mph41%30.20 "Hg10 mi
8:53 am44 °FSunny.No wind82%30.19 "Hg7 mi
7:53 am35 °FFog.No wind88%30.18 "Hg5 mi
Weather by CustomWeather, © 2019

See weather overview